This is the latest recevied weather packets stored in our database for station/object SP6W-10. If no packets are shown the sender has not sent any weather packets the latest 10 day(s).
| Time | Temp. | Humidity | Pressure | Rain* | Wind** | Luminosity | Snow |
|---|---|---|---|---|---|---|---|
| 1777686181 | 25.56° C | 22% | 1025.8 hPa | - | - | - | - |
| 1777684381 | 25.56° C | 22% | 1025.9 hPa | - | - | - | - |
| 1777682578 | 26.11° C | 22% | 1026 hPa | - | - | - | - |
| 1777680778 | 26.11° C | 21% | 1026.1 hPa | - | - | - | - |
| 1777678978 | 26.11° C | 21% | 1026.2 hPa | - | - | - | - |
| 1777677178 | 26.67° C | 21% | 1026.4 hPa | - | - | - | - |
| 1777675378 | 26.67° C | 21% | 1026.3 hPa | - | - | - | - |
| 1777671773 | 27.78° C | 21% | 1026.6 hPa | - | - | - | - |
| 1777669977 | 27.78° C | 21% | 1026.5 hPa | - | - | - | - |
| 1777668173 | 28.33° C | 20% | 1026.4 hPa | - | - | - | - |
| 1777666373 | 28.33° C | 21% | 1026.5 hPa | - | - | - | - |
| 1777664573 | 28.89° C | 21% | 1026.4 hPa | - | - | - | - |
| 1777662773 | 27.78° C | 21% | 1026.4 hPa | - | - | - | - |
| 1777660973 | 30° C | 19% | 1026.3 hPa | - | - | - | - |
| 1777659172 | 30° C | 20% | 1025.9 hPa | - | - | - | - |
| 1777655572 | 31.67° C | 18% | 1025.8 hPa | - | - | - | - |
| 1777653772 | 31.67° C | 17% | 1025.8 hPa | - | - | - | - |
| 1777650174 | 31.67° C | 16% | 1026.1 hPa | - | - | - | - |
| 1777648372 | 31.11° C | 17% | 1026.1 hPa | - | - | - | - |
| 1777646577 | 30.56° C | 18% | 1026.3 hPa | - | - | - | - |
| 1777644775 | 30° C | 18% | 1026.5 hPa | - | - | - | - |
| 1777642971 | 29.44° C | 18% | 1026.8 hPa | - | - | - | - |
| 1777641172 | 28.89° C | 19% | 1026.9 hPa | - | - | - | - |
| 1777639371 | 28.33° C | 19% | 1027.2 hPa | - | - | - | - |
| 1777637571 | 27.78° C | 20% | 1027.7 hPa | - | - | - | - |
* Rain since midnight (hover to see other rain measurements)
** Current wind speed in m/s (hover to see current wind gust speed)